Location: Portus Ritupis
(51.2833°N, 1.3333°E)
Time: 20:07:03
(UTC+00:00)

Daily predictions for brighter satellites

Satellite Brightness Start Highest point End
(mag) Time Altitude Azimuth Time Altitude Azimuth Time Altitude Azimuth
Cosmos 1953 Rocket 3.7 17:25:21 10° N 17:29:40 54° ENE 17:33:56 10° SSE
H-2A R/B 4.0 17:28:10 10° ENE 17:29:45 11° NE 17:31:21 10° NNE
CORIOLIS 4.4 17:24:56 10° SSE 17:30:16 80° WSW 17:35:41 10° NNW
Cosmos 1953 2.5 17:26:31 10° S 17:30:28 51° E 17:34:26 10° NNE
Unknown 3.5 17:28:49 10° WSW 17:32:44 89° SSE 17:36:39 10° ENE
Unknown 3.9 17:29:11 10° SW 17:33:15 59° SSE 17:37:21 10° ENE
Unknown 3.9 17:29:26 10° SW 17:33:31 59° SSE 17:37:36 10° ENE
Unknown 3.8 17:30:06 10° SW 17:34:11 59° SSE 17:38:17 10° ENE
Unknown 2.8 17:31:53 10° WNW 17:35:00 84° NNE 17:38:08 10° ESE
YAOGAN 6 3.1 17:31:36 10° SE 17:35:02 39° ENE 17:38:28 10° N
Cosmos 1758 3.5 17:33:56 10° SSW 17:37:55 80° W 17:41:55 10° N
Unknown 3.8 17:34:00 10° SW 17:38:05 62° SSE 17:42:11 10° ENE
Unknown 3.8 17:34:24 10° SW 17:38:30 62° SSE 17:42:36 10° ENE
Cosmos 1844 Rocket 2.8 17:33:58 10° SSW 17:39:31 61° ESE 17:45:05 10° NE
Unknown 3.8 17:36:09 10° WSW 17:40:15 65° SSE 17:44:23 10° ENE
FengYun 1-2 T 4.3 17:36:32 10° SSE 17:42:07 65° ENE 17:47:40 10° N
Unknown 3.7 17:39:27 10° WSW 17:43:34 67° SSE 17:47:35 11° ENE
Unknown 3.7 17:39:51 10° WSW 17:43:57 66° SSE 17:47:57 11° ENE
Unknown 3.4 17:41:54 10° WNW 17:44:28 46° SSW 17:47:03 10° SE
Cosmos 1606 Rocket 3.5 17:40:44 10° S 17:45:04 63° E 17:49:24 10° NNE
Unknown 3.7 17:41:02 10° WSW 17:45:08 67° SSE 17:49:06 11° ENE
Cosmos 724 4.4 17:39:06 10° SW 17:45:14 88° SE 17:51:18 10° NE
Unknown 3.7 17:44:10 10° WSW 17:48:16 68° SSE 17:52:07 12° ENE
Envisat 3.0 17:44:18 10° SSE 17:49:23 86° ENE 17:54:31 10° NNW
Meteor 1-16 Rocket 4.3 17:44:56 10° SSE 17:50:14 49° E 17:55:26 10° NNE
Cosmos 1758 Rocket 4.2 17:46:34 10° NNW 17:50:58 63° W 17:55:23 10° S
Unknown 3.7 17:47:37 10° WSW 17:51:45 72° SSE 17:55:27 13° ENE
Unknown 3.7 17:49:16 10° WSW 17:53:24 72° SSE 17:57:03 13° ENE
Cosmos 1461 3.5 17:50:54 10° NNW 17:54:41 37° NE 17:58:04 13° ESE
Unknown 3.6 17:50:56 10° WSW 17:55:04 74° SSE 17:58:39 14° ENE
Cosmos 1908 4.2 17:51:52 10° SSE 17:55:10 27° E 17:58:29 10° NNE
Unknown 3.6 17:52:35 10° WSW 17:56:44 75° SSE 18:00:15 14° ENE
Lacrosse 5 rocket 3.1 17:53:50 10° WNW 17:57:05 28° SW 18:00:27 10° SSE
FALCON 9 DEB 3.3 17:53:59 10° WNW 17:57:28 67° N 18:00:08 16° E
ASTEX 1 3.4 17:52:35 10° NNE 17:57:30 61° E 18:02:25 10° S
Unknown 3.6 17:55:55 10° WSW 18:00:04 77° SSE 18:03:27 15° ENE
Cosmos 1356 3.9 17:57:12 10° SSE 18:00:23 36° E 18:03:36 10° NNE
Cosmos 2278 Rocket 3.1 17:56:36 10° SSE 18:01:10 26° ESE 18:05:45 10° NE
Unknown 3.6 17:57:37 10° WSW 18:01:47 79° SSE 18:05:06 16° ENE
Cosmos 1939 Rocket 3.5 17:58:11 10° SE 18:01:50 35° ENE 18:05:34 10° N
Unknown 3.1 17:59:15 10° WNW 18:02:40 70° N 18:05:05 18° E
Unknown 3.6 17:59:15 10° WSW 18:03:24 80° SSE 18:06:39 16° ENE
Unknown 3.3 18:00:47 10° WNW 18:04:18 66° N 18:06:45 18° E
Cosmos 1470 4.1 18:00:57 10° SSW 18:04:46 43° WNW 18:08:35 10° N
Unknown 3.6 18:00:52 10° WSW 18:05:01 80° SSE 18:08:12 17° ENE
Unknown 3.6 18:01:17 10° WSW 18:05:25 81° SSE 18:08:36 17° ENE
Cosmos 1844 3.7 17:59:52 10° SSW 18:05:34 75° ESE 18:11:22 10° NNE
ATLAS 5 CENTAUR R/B 1.9 18:01:32 10° SW 18:05:53 72° NW 18:10:53 10° NE
SKYMED 2 3.5 18:03:04 10° NNE 18:07:26 69° ESE 18:11:45 10° S
Unknown 3.6 18:04:02 10° WSW 18:08:10 80° SSE 18:11:14 18° ENE
Cosmos 1328 3.7 18:04:17 10° N 18:08:18 75° ENE 18:12:15 10° SSE
Unknown 3.6 18:07:23 10° WSW 18:11:33 82° SSE 18:14:29 19° ENE
Unknown 3.6 18:09:02 10° WSW 18:13:11 83° SSE 18:16:03 19° ENE
YAOGAN 1 2.5 18:09:39 10° SSE 18:13:59 86° ENE 18:18:21 10° NNW
Unknown 3.6 18:10:55 10° WSW 18:15:04 87° SSE 18:17:53 20° ENE
ATLAS CENTAUR R/B 3.8 18:12:37 10° NW 18:15:31 16° N 18:18:19 10° NE
Unknown 3.6 18:12:18 10° WSW 18:16:28 86° SSE 18:19:12 21° ENE
Falcon 9 debris 3.1 18:13:39 10° WNW 18:17:06 75° NNE 18:18:58 25° E
Unknown 3.6 18:13:59 10° WSW 18:18:08 87° SSE 18:20:49 21° ENE
Cosmos 292 Rocket 3.8 18:16:09 10° S 18:20:45 54° ESE 18:25:25 10° NNE
Unknown 3.6 18:17:20 10° WSW 18:21:30 89° SSE 18:24:03 23° ENE
Unknown 3.6 18:19:01 10° WSW 18:23:11 90° SSE 18:25:40 24° ENE
CSL-04 Rocket 3.9 18:18:46 10° SSE 18:24:19 79° WSW 18:29:50 10° NNW
CZ-4 R/B 2.1 18:20:39 10° S 18:24:47 58° W 18:28:58 10° NNW
Unknown 3.6 18:20:41 10° WSW 18:24:50 89° NW 18:27:15 24° ENE
Unknown 3.6 18:22:21 10° WSW 18:26:31 88° NNW 18:28:51 25° ENE
Cosmos 2263 Rocket 4.2 18:21:57 10° W 18:26:32 25° NW 18:31:09 10° NNE
Cosmos 1726 Rocket 4.0 18:22:12 10° SSW 18:26:33 64° WNW 18:30:55 10° N
Unknown 3.1 18:23:46 10° WNW 18:27:18 76° NNE 18:28:48 32° E
Shenzhou-11 Module 4.0 18:27:30 10° SW 18:29:10 15° S 18:29:46 14° SSE
Unknown 3.6 18:25:40 10° WSW 18:29:49 86° NNW 18:32:02 27° ENE
Lacrosse 5 1.9 18:24:45 10° WNW 18:29:50 72° NNE 18:32:48 25° ESE
Unknown 3.6 18:27:09 10° WSW 18:31:18 85° NNW 18:33:28 28° ENE
Unknown 3.6 18:27:37 10° WSW 18:31:47 82° NNW 18:33:54 28° ENE
Cosmos 1726 2.0 18:28:10 10° S 18:31:49 85° W 18:35:30 10° N
Ariane Rocket 3.0 18:26:56 10° SSE 18:31:58 66° ENE 18:37:04 10° N
Cosmos 2228 3.9 18:27:47 10° SSW 18:32:04 53° WNW 18:36:21 10° N
Cosmos 1242 Rocket 3.6 18:28:30 10° NNW 18:32:05 48° W 18:35:39 10° S
NOAA 11 4.1 18:26:43 10° SSE 18:32:09 76° ENE 18:37:36 10° NNW
Unknown 3.6 18:29:14 10° WSW 18:33:24 82° NNW 18:35:29 29° ENE
Unknown 3.6 18:32:18 10° WSW 18:36:28 83° NNW 18:38:25 31° ENE
Cosmos 1833 Rocket 2.6 18:33:41 10° NNW 18:39:21 80° ENE 18:44:18 14° SSE
CZ-2D R/B 3.2 18:35:55 10° SSE 18:39:46 87° WSW 18:43:40 10° NNW
Unknown 3.6 18:35:38 10° WSW 18:39:47 81° NNW 18:41:36 33° ENE
ARGOS 4.0 18:38:25 26° E 18:39:58 31° ENE 18:44:40 10° N
Unknown 3.6 18:37:20 10° WSW 18:41:31 81° NNW 18:43:15 34° ENE
Cosmos 2058 Rocket 3.4 18:37:32 10° SSW 18:41:53 67° WNW 18:46:14 10° N
Cosmos 921 Rocket 3.5 18:37:54 10° SSW 18:42:22 63° WNW 18:46:49 10° NNE
Unknown 3.6 18:38:58 10° W 18:43:07 80° NNW 18:44:48 35° ENE
Unknown 3.6 18:39:17 10° W 18:43:23 77° NNW 18:45:00 35° ENE
Unknown 3.6 18:40:40 10° W 18:44:49 79° NNW 18:46:26 36° ENE
Cosmos 2151 4.5 18:42:34 10° NNE 18:44:57 21° NE 18:44:57 21° NE
Cosmos 2084 4.0 18:41:39 10° WSW 18:46:07 59° NW 18:49:25 17° NE
Cosmos 1339 Rocket 4.3 18:41:46 10° S 18:47:50 81° E 18:54:02 10° NNE
Cosmos 1937 Rocket 4.4 18:43:34 10° N 18:48:00 28° NE 18:48:39 27° ENE
Unknown 3.6 18:44:47 10° W 18:48:51 71° N 18:50:10 40° ENE
Cosmos 1777 Rocket 4.4 18:44:45 10° NNW 18:49:57 63° WSW 18:55:04 10° S
SPOT 3 Rocket 3.9 18:48:34 32° ESE 18:50:18 42° ENE 18:55:12 10° N
NOSS 3-2 (A) 4.1 18:46:21 10° S 18:51:18 29° ESE 18:51:20 29° ESE
Unknown 3.6 18:47:16 10° W 18:51:25 77° NNW 18:52:46 42° ENE
Unknown 3.4 18:47:58 10° WNW 18:51:42 68° N 18:52:29 50° ENE
HJ-1C 3.2 18:51:33 36° SSE 18:52:48 83° ENE 18:56:11 10° NNW
Unknown 3.6 18:48:59 10° W 18:53:08 76° N 18:54:24 43° ENE
NOSS 3-3 (A) 4.4 18:47:20 10° NW 18:54:39 78° NE 18:59:43 26° SE
NOSS 3-3 (C) 4.4 18:47:26 10° NW 18:54:45 78° NE 18:59:47 26° SE
Unknown 3.6 18:50:38 10° W 18:54:47 76° N 18:55:59 45° ENE
Cosmos 1459 Rocket 4.1 18:48:57 10° N 18:55:01 53° ENE 18:58:57 22° SE
USA 116 4.0 18:52:06 10° N 18:55:09 52° WNW 18:58:20 10° SSW
COSMO-SKYMED 1 3.8 18:51:20 10° N 18:55:27 43° WNW 18:59:34 10° SW
Unknown 3.6 18:52:16 10° W 18:56:25 75° N 18:57:33 46° ENE
Cosmos 1605 Rocket 4.3 18:51:40 10° NNW 18:57:49 66° W 19:03:53 10° S
FREGAT/IRIS 4.4 18:59:31 21° N 18:59:31 21° N 19:00:37 10° N
Cosmos 2058 3.1 18:53:46 10° N 18:57:54 50° ENE 18:58:10 49° E
Unknown 3.6 18:53:57 10° W 18:58:06 74° N 18:59:10 48° ENE
Gbstr 26 Del rocket 4.3 18:54:09 10° WNW 19:00:14 68° SSW 19:04:04 29° SE
Cosmos 2082 Rocket 2.1 18:55:42 10° NNW 19:01:28 83° ENE 19:04:38 28° SE
Unknown 3.7 18:57:19 10° W 19:01:29 73° N 19:02:24 51° ENE
Starlink (trailer) 3.7 18:58:59 10° W 19:03:08 73° N 19:03:59 53° ENE
SJ 16-02 2.6 18:59:18 10° N 19:02:24 26° NE 19:02:24 26° NE
Abrixas rocket 4.5 19:02:06 10° SSW 19:02:52 14° SSW 19:02:52 14° SSW
Unknown 3.7 19:00:38 10° W 19:04:47 72° N 19:05:34 55° NE
Unknown 3.4 19:01:03 10° W 19:04:53 67° N 19:05:15 61° NE
Unknown 3.7 19:02:14 10° W 19:06:24 72° N 19:07:07 57° NE
Resurs 01 Rocket 3.2 19:09:04 21° NNE 19:09:04 21° NNE 19:11:16 10° N
H-2A R/B 2.3 19:06:52 43° ESE 19:07:57 50° ENE 19:13:11 10° N
SJ-6B 3.4 19:08:58 41° NNE 19:08:58 41° NNE 19:11:46 10° N
Cosmos 1727 Rocket 3.8 19:03:09 10° S 19:09:19 82° E 19:15:31 10° NNE
Unknown 3.5 19:07:38 10° W 19:11:32 67° N 19:11:44 66° NNE
Unknown 3.6 19:08:43 10° W 19:12:52 70° N 19:13:18 63° NE
Unknown 3.6 19:08:58 10° W 19:13:07 71° N 19:13:33 64° NE
Okean 3 Rocket 4.0 19:09:19 10° N 19:13:08 46° NE 19:13:08 46° NE
Unknown 3.6 19:09:38 10° W 19:13:47 70° N 19:14:12 64° NE
Cosmos 1802 Rocket 4.0 19:08:39 10° N 19:15:03 62° ENE 19:17:48 35° SE
Unknown 3.6 19:13:34 10° W 19:17:42 70° N 19:17:57 67° NNE
Unknown 3.6 19:13:59 10° W 19:18:07 70° N 19:18:21 68° NNE
Cosmos 2173 Rocket 3.9 19:12:04 10° N 19:18:24 75° ENE 19:22:02 26° SSE
Unknown 3.6 19:15:45 10° W 19:19:53 69° N 19:20:03 68° NNE
Unknown 3.7 19:19:04 10° W 19:23:13 69° N 19:23:14 69° N
Unknown 3.7 19:19:28 10° W 19:23:36 69° N 19:23:36 69° N
Cosmos 1844 Rocket 4.3 19:18:45 10° WSW 19:23:48 32° NW 19:28:50 10° NNE
SJ-11-01 4.3 19:22:27 39° S 19:24:14 81° WSW 19:28:57 10° NNW
Unknown 3.7 19:20:39 10° W 19:24:45 69° N 19:24:45 69° N
Unknown 3.8 19:23:48 10° W 19:27:46 67° NNW 19:27:46 67° NNW
In-Cosmos 22 Rocket 4.0 19:23:42 10° NNW 19:29:06 82° ENE 19:30:27 52° SSE
Unknown 3.9 19:27:17 10° W 19:31:07 65° NW 19:31:07 65° NW
Cosmos 1898 Rocket 3.4 19:27:04 10° NNW 19:32:21 71° ENE 19:32:33 70° E
Unknown 3.9 19:28:57 10° W 19:32:42 63° NW 19:32:42 63° NW
Cosmos 1461 4.0 19:30:01 10° NW 19:33:48 38° WSW 19:34:29 35° SW
Unknown 4.0 19:30:37 10° W 19:34:18 61° NW 19:34:18 61° NW
ADEOS Rocket 3.5 19:27:07 10° NNE 19:34:49 60° E 19:42:02 10° S
Unknown 4.1 19:32:17 10° W 19:35:54 60° NW 19:35:54 60° NW
Cosmos 1725 Rocket 3.9 19:30:39 10° N 19:36:52 60° ENE 19:37:16 59° E
CZ-2C R/B 3.4 19:37:02 58° ENE 19:37:02 58° ENE 19:42:41 10° N
Cosmos 2100 Rocket 4.0 19:33:04 10° NNW 19:39:17 76° W 19:43:19 23° S
Unknown 4.2 19:35:38 10° W 19:39:06 56° NW 19:39:06 56° NW
Cosmos 2084 Rocket 3.7 19:35:24 10° NW 19:39:27 68° W 19:39:27 68° W
MetOp-A 4.4 19:41:48 51° NE 19:41:48 51° NE 19:46:18 10° N
Cosmos 1000 Rocket 4.3 19:35:13 10° S 19:41:24 78° E 19:47:40 10° NNE
Unknown 4.3 19:37:21 10° W 19:40:45 54° NW 19:40:45 54° NW
Cosmos 1812 Rocket 4.2 19:37:27 10° SSW 19:41:47 54° WNW 19:46:12 10° N
Unknown 4.3 19:38:58 10° W 19:42:18 52° WNW 19:42:18 52° WNW
Unknown 4.4 19:40:36 10° W 19:43:51 51° WNW 19:43:51 51° WNW
Cosmos 2278 Rocket 2.5 19:39:10 10° SW 19:44:48 66° WNW 19:50:30 10° NNE
Unknown 4.4 19:41:01 10° W 19:44:15 50° WNW 19:44:15 50° WNW
ATLAS 5 CENTAUR R/B 3.6 19:47:27 10° WNW 19:51:24 26° NNW 19:53:19 21° NNE
ATLAS CENTAUR R/B 3.5 19:52:20 10° NNW 19:55:00 21° N 19:55:00 21° N
Cosmos 2016 Rocket 4.0 19:55:51 10° NNW 20:02:07 79° W 20:03:18 60° SSW
SL-08 R/B 4.3 20:01:34 10° N 20:07:45 83° W 20:07:52 82° WSW
Lacrosse 5 3.1 20:07:58 10° WNW 20:12:00 35° WSW 20:12:00 35° WSW
USA 238 DEB 3.6 20:09:06 10° SW 20:15:51 85° NW 20:16:23 77° NNE
USA 238 3.6 20:09:13 10° SW 20:15:58 85° NW 20:16:25 79° NNE
Cosmos 2061 Rocket 4.4 20:11:51 10° NNW 20:17:59 59° W 20:19:19 49° SW
ARGOS 3.7 20:19:56 52° WSW 20:20:00 52° W 20:25:20 10° NNW
SJ 16-02 3.7 20:37:43 10° NW 20:39:25 21° NW 20:39:25 21° NW
Cosmos 2227 Rocket 4.5 20:40:14 10° N 20:42:32 15° NNE 20:42:32 15° NNE
Resurs 01 Rocket 4.0 20:46:38 20° NW 20:46:38 20° NW 20:48:11 10° NNW
Cosmos 2082 Rocket 4.3 20:40:52 10° NW 20:44:52 20° W 20:46:31 18° WSW
H-2A R/B 3.7 20:47:31 30° W 20:47:37 30° W 20:52:21 10° NNW
Cosmos 2297 Rocket 4.4 20:45:42 10° N 20:47:52 15° NNE 20:47:52 15° NNE
